contact:dominique.lefevre@mio.osupytheas.fr, maurice.libes@osupytheas.fr, didier.mallarino@osupytheas.fr
Project:EMSO http://www.emso-fr.org/EMSO-France
Depth: 2436.0 m
Title:EMSO Ligure Ouest : Data MII capteur CSTAR
DateTime,Latitude,Longitude,Instrument_Serial,Reference_Counts,Signal_Counts,Corrected_Signal_raw_counts,Calculated_Beam_c_inverse_meters,Internal_thermistor_counts
DateTime,Latitude,Longitude,Instrument_Serial,Reference_Counts,Signal_Counts,Corrected_Signal_raw_counts,Calculated_Beam_c_inverse_meters,Internal_thermistor_counts
2023-09-24T00:02:14,42.805,6.029,CST-1368DR,4157,4512,11506,01.222,552
2023-09-24T00:05:15,42.805,6.029,CST-1368DR,4157,4512,11506,01.222,553
2023-09-24T00:08:17,42.805,6.029,CST-1368DR,4157,4513,11510,01.220,553
2023-09-24T00:11:18,42.805,6.029,CST-1368DR,4157,4513,11511,01.220,552
2023-09-24T00:14:20,42.805,6.029,CST-1368DR,4157,4512,11508,01.221,552
2023-09-24T00:17:21,42.805,6.029,CST-1368DR,4157,4513,11510,01.220,553
2023-09-24T00:20:23,42.805,6.029,CST-1368DR,4157,4513,11510,01.220,552
2023-09-24T00:23:25,42.805,6.029,CST-1368DR,4157,4513,11510,01.220,553
2023-09-24T00:26:26,42.805,6.029,CST-1368DR,4157,4513,11510,01.220,553
2023-09-24T00:29:28,42.805,6.029,CST-1368DR,4157,4508,11496,01.225,552
2023-09-24T00:32:29,42.805,6.029,CST-1368DR,4157,4513,11510,01.220,553
2023-09-24T00:35:31,42.805,6.029,CST-1368DR,4157,4511,11506,01.222,553
2023-09-24T00:38:32,42.805,6.029,CST-1368DR,4157,4513,11510,01.220,552
2023-09-24T00:41:34,42.805,6.029,CST-1368DR,4157,4514,11513,01.219,552
2023-09-24T00:44:36,42.805,6.029,CST-1368DR,4157,4512,11508,01.221,553
2023-09-24T00:47:37,42.805,6.029,CST-1368DR,4157,4514,11512,01.220,553
2023-09-24T00:50:39,42.805,6.029,CST-1368DR,4157,4514,11513,01.219,553
2023-09-24T00:53:40,42.805,6.029,CST-1368DR,4157,4512,11506,01.222,553
2023-09-24T00:56:42,42.805,6.029,CST-1368DR,4157,4512,11506,01.222,553
2023-09-24T00:59:44,42.805,6.029,CST-1368DR,4157,4513,11510,01.220,553
2023-09-24T01:02:45,42.805,6.029,CST-1368DR,4157,4513,11510,01.220,553
2023-09-24T01:05:47,42.805,6.029,CST-1368DR,4157,4513,11510,01.220,553
2023-09-24T01:08:48,42.805,6.029,CST-1368DR,4157,4511,11506,01.222,553
2023-09-24T01:11:50,42.805,6.029,CST-1368DR,4157,4514,11512,01.220,553
2023-09-24T01:14:51,42.805,6.029,CST-1368DR,4157,4513,11510,01.220,553
2023-09-24T01:17:53,42.805,6.029,CST-1368DR,4158,4513,11507,01.221,553
2023-09-24T01:20:55,42.805,6.029,CST-1368DR,4157,4512,11508,01.221,552
2023-09-24T01:23:56,42.805,6.029,CST-1368DR,4157,4513,11509,01.221,552
2023-09-24T01:26:58,42.805,6.029,CST-1368DR,4157,4513,11510,01.220,553
2023-09-24T01:29:59,42.805,6.029,CST-1368DR,4157,4513,11509,01.221,553
2023-09-24T01:33:01,42.805,6.029,CST-1368DR,4157,4513,11510,01.220,553
2023-09-24T01:36:02,42.805,6.029,CST-1368DR,4157,4512,11508,01.221,552
2023-09-24T01:39:04,42.805,6.029,CST-1368DR,4157,4513,11509,01.221,552
2023-09-24T01:42:06,42.805,6.029,CST-1368DR,4157,4506,11491,01.227,553
2023-09-24T01:45:07,42.805,6.029,CST-1368DR,4157,4513,11509,01.221,553
2023-09-24T01:48:09,42.805,6.029,CST-1368DR,4157,4514,11512,01.220,552
2023-09-24T01:51:10,42.805,6.029,CST-1368DR,4157,4513,11510,01.220,552
2023-09-24T01:54:12,42.805,6.029,CST-1368DR,4157,4514,11512,01.220,553
2023-09-24T01:57:14,42.805,6.029,CST-1368DR,4157,4512,11508,01.221,552
2023-09-24T02:00:15,42.805,6.029,CST-1368DR,4157,4513,11509,01.221,553
2023-09-24T02:03:17,42.805,6.029,CST-1368DR,4157,4513,11510,01.220,552
2023-09-24T02:06:18,42.805,6.029,CST-1368DR,4157,4512,11508,01.221,553
2023-09-24T02:09:20,42.805,6.029,CST-1368DR,4157,4512,11508,01.221,553
2023-09-24T02:12:21,42.805,6.029,CST-1368DR,4157,4511,11504,01.222,553
2023-09-24T02:15:23,42.805,6.029,CST-1368DR,4157,4513,11511,01.220,553
2023-09-24T02:18:25,42.805,6.029,CST-1368DR,4157,4515,11514,01.219,552
2023-09-24T02:21:26,42.805,6.029,CST-1368DR,4157,4516,11517,01.218,553
2023-09-24T02:24:28,42.805,6.029,CST-1368DR,4157,4514,11513,01.219,553
2023-09-24T02:27:29,42.805,6.029,CST-1368DR,4157,4516,11517,01.218,552
2023-09-24T02:30:31,42.805,6.029,CST-1368DR,4157,4513,11511,01.220,553
2023-09-24T02:33:32,42.805,6.029,CST-1368DR,4157,4513,11511,01.220,552
2023-09-24T02:36:34,42.805,6.029,CST-1368DR,4157,4512,11508,01.221,553
2023-09-24T02:39:36,42.805,6.029,CST-1368DR,4157,4513,11510,01.220,553
2023-09-24T02:42:37,42.805,6.029,CST-1368DR,4157,4513,11511,01.220,553
2023-09-24T02:45:39,42.805,6.029,CST-1368DR,4157,4513,11510,01.220,553
2023-09-24T02:48:40,42.805,6.029,CST-1368DR,4157,4511,11504,01.222,552
2023-09-24T02:51:42,42.805,6.029,CST-1368DR,4157,4513,11509,01.221,552
2023-09-24T02:54:44,42.805,6.029,CST-1368DR,4157,4512,11508,01.221,552
2023-09-24T02:57:45,42.805,6.029,CST-1368DR,4157,4513,11509,01.221,553
2023-09-24T03:00:47,42.805,6.029,CST-1368DR,4157,4512,11508,01.221,553
2023-09-24T03:03:48,42.805,6.029,CST-1368DR,4157,4516,11517,01.218,553
2023-09-24T03:06:50,42.805,6.029,CST-1368DR,4157,4513,11510,01.220,552
2023-09-24T03:09:51,42.805,6.029,CST-1368DR,4157,4512,11508,01.221,553
2023-09-24T03:12:53,42.805,6.029,CST-1368DR,4157,4512,11508,01.221,552
2023-09-24T03:15:55,42.805,6.029,CST-1368DR,4157,4512,11508,01.221,552
2023-09-24T03:18:56,42.805,6.029,CST-1368DR,4157,4513,11510,01.220,552
2023-09-24T03:21:58,42.805,6.029,CST-1368DR,4157,4512,11508,01.221,552
2023-09-24T03:24:59,42.805,6.029,CST-1368DR,4157,4513,11510,01.220,552
2023-09-24T03:28:01,42.805,6.029,CST-1368DR,4157,4514,11512,01.220,553
2023-09-24T03:31:02,42.805,6.029,CST-1368DR,4157,4512,11506,01.222,552
2023-09-24T03:34:04,42.805,6.029,CST-1368DR,4157,4511,11506,01.222,553
2023-09-24T03:37:06,42.805,6.029,CST-1368DR,4157,4514,11512,01.220,553
2023-09-24T03:40:07,42.805,6.029,CST-1368DR,4157,4515,11514,01.219,553
2023-09-24T03:43:09,42.805,6.029,CST-1368DR,4157,4509,11499,01.224,553
2023-09-24T03:46:10,42.805,6.029,CST-1368DR,4157,4511,11505,01.222,553
2023-09-24T03:49:12,42.805,6.029,CST-1368DR,4157,4514,11512,01.220,553
2023-09-24T03:52:14,42.805,6.029,CST-1368DR,4157,4513,11511,01.220,553
2023-09-24T03:55:15,42.805,6.029,CST-1368DR,4157,4513,11511,01.220,553
2023-09-24T03:58:17,42.805,6.029,CST-1368DR,4157,4510,11503,01.223,553
2023-09-24T04:01:18,42.805,6.029,CST-1368DR,4157,4514,11512,01.220,552
2023-09-24T04:04:20,42.805,6.029,CST-1368DR,4157,4514,11513,01.219,553
2023-09-24T04:07:21,42.805,6.029,CST-1368DR,4157,4511,11506,01.222,553
2023-09-24T04:10:23,42.805,6.029,CST-1368DR,4157,4511,11505,01.222,552
2023-09-24T04:13:25,42.805,6.029,CST-1368DR,4157,4512,11506,01.222,553
2023-09-24T04:16:26,42.805,6.029,CST-1368DR,4157,4512,11508,01.221,553
2023-09-24T04:19:28,42.805,6.029,CST-1368DR,4157,4509,11501,01.223,553
2023-09-24T04:22:29,42.805,6.029,CST-1368DR,4157,4510,11503,01.223,552
2023-09-24T04:25:31,42.805,6.029,CST-1368DR,4157,4513,11511,01.220,553
2023-09-24T04:28:32,42.805,6.029,CST-1368DR,4157,4508,11497,01.225,553
2023-09-24T04:31:37,42.805,6.029,CST-1368DR,4157,4511,11504,01.222,553
2023-09-24T04:34:38,42.805,6.029,CST-1368DR,4157,4513,11510,01.220,552
2023-09-24T04:37:40,42.805,6.029,CST-1368DR,4157,4510,11502,01.223,553
2023-09-24T04:40:41,42.805,6.029,CST-1368DR,4157,4511,11504,01.222,553
2023-09-24T04:43:43,42.805,6.029,CST-1368DR,4157,4514,11513,01.219,552
2023-09-24T04:46:44,42.805,6.029,CST-1368DR,4157,4510,11501,01.223,553
2023-09-24T04:49:46,42.805,6.029,CST-1368DR,4157,4509,11499,01.224,552
2023-09-24T04:52:48,42.805,6.029,CST-1368DR,4157,4505,11489,01.228,553
2023-09-24T04:55:49,42.805,6.029,CST-1368DR,4157,4507,11495,01.226,553
2023-09-24T04:58:51,42.805,6.029,CST-1368DR,4157,4506,11491,01.227,553
2023-09-24T05:01:52,42.805,6.029,CST-1368DR,4157,4508,11496,01.225,553
2023-09-24T05:04:54,42.805,6.029,CST-1368DR,4157,4509,11499,01.224,552
2023-09-24T05:07:56,42.805,6.029,CST-1368DR,4157,4510,11501,01.223,553
2023-09-24T05:10:57,42.805,6.029,CST-1368DR,4157,4509,11500,01.224,552
2023-09-24T05:13:59,42.805,6.029,CST-1368DR,4157,4508,11497,01.225,553
2023-09-24T05:17:00,42.805,6.029,CST-1368DR,4157,4507,11494,01.226,553
2023-09-24T05:20:02,42.805,6.029,CST-1368DR,4157,4510,11502,01.223,552
2023-09-24T05:23:03,42.805,6.029,CST-1368DR,4157,4509,11499,01.224,552
2023-09-24T05:26:05,42.805,6.029,CST-1368DR,4157,4507,11496,01.225,553
2023-09-24T05:29:07,42.805,6.029,CST-1368DR,4157,4508,11497,01.225,553
2023-09-24T05:32:08,42.805,6.029,CST-1368DR,4157,4510,11503,01.223,553
2023-09-24T05:35:10,42.805,6.029,CST-1368DR,4157,4510,11501,01.223,553
2023-09-24T05:38:11,42.805,6.029,CST-1368DR,4157,4508,11497,01.225,552
2023-09-24T05:41:13,42.805,6.029,CST-1368DR,4157,4509,11500,01.224,552
2023-09-24T05:44:15,42.805,6.029,CST-1368DR,4157,4509,11499,01.224,553
2023-09-24T05:47:16,42.805,6.029,CST-1368DR,4157,4510,11501,01.223,553
2023-09-24T05:50:18,42.805,6.029,CST-1368DR,4157,4509,11499,01.224,552
2023-09-24T05:53:19,42.805,6.029,CST-1368DR,4157,4509,11501,01.223,553
2023-09-24T05:56:21,42.805,6.029,CST-1368DR,4157,4510,11502,01.223,552
2023-09-24T05:59:22,42.805,6.029,CST-1368DR,4157,4508,11497,01.225,553
2023-09-24T06:02:24,42.805,6.029,CST-1368DR,4157,4507,11494,01.226,553
2023-09-24T06:05:26,42.805,6.029,CST-1368DR,4157,4509,11500,01.224,553
2023-09-24T06:08:27,42.805,6.029,CST-1368DR,4157,4509,11500,01.224,553
2023-09-24T06:11:29,42.805,6.029,CST-1368DR,4157,4508,11497,01.225,553
2023-09-24T06:14:30,42.805,6.029,CST-1368DR,4157,4509,11501,01.223,553
2023-09-24T06:17:32,42.805,6.029,CST-1368DR,4157,4508,11497,01.225,553
2023-09-24T06:20:33,42.805,6.029,CST-1368DR,4157,4508,11497,01.225,553
2023-09-24T06:23:35,42.805,6.029,CST-1368DR,4157,4510,11503,01.223,553
2023-09-24T06:26:37,42.805,6.029,CST-1368DR,4157,4509,11500,01.224,553
2023-09-24T06:29:38,42.805,6.029,CST-1368DR,4157,4511,11506,01.222,553
2023-09-24T06:32:40,42.805,6.029,CST-1368DR,4157,4508,11496,01.225,552
2023-09-24T06:35:41,42.805,6.029,CST-1368DR,4157,4510,11501,01.223,553
2023-09-24T06:38:43,42.805,6.029,CST-1368DR,4157,4508,11497,01.225,553
2023-09-24T06:41:45,42.805,6.029,CST-1368DR,4157,4508,11497,01.225,553
2023-09-24T06:44:46,42.805,6.029,CST-1368DR,4157,4507,11496,01.225,553
2023-09-24T06:47:48,42.805,6.029,CST-1368DR,4157,4510,11503,01.223,552
2023-09-24T06:50:49,42.805,6.029,CST-1368DR,4157,4511,11504,01.222,553
2023-09-24T06:53:51,42.805,6.029,CST-1368DR,4157,4513,11510,01.220,552
2023-09-24T06:56:52,42.805,6.029,CST-1368DR,4157,4510,11503,01.223,553
2023-09-24T06:59:54,42.805,6.029,CST-1368DR,4157,4510,11501,01.223,552
2023-09-24T07:02:56,42.805,6.029,CST-1368DR,4157,4510,11503,01.223,552
2023-09-24T07:05:57,42.805,6.029,CST-1368DR,4157,4509,11501,01.223,553
2023-09-24T07:08:59,42.805,6.029,CST-1368DR,4157,4509,11499,01.224,553
2023-09-24T07:12:00,42.805,6.029,CST-1368DR,4157,4511,11504,01.222,552
2023-09-24T07:15:02,42.805,6.029,CST-1368DR,4157,4511,11506,01.222,552
2023-09-24T07:18:04,42.805,6.029,CST-1368DR,4157,4510,11502,01.223,552
2023-09-24T07:21:05,42.805,6.029,CST-1368DR,4157,4511,11504,01.222,553
2023-09-24T07:24:07,42.805,6.029,CST-1368DR,4157,4510,11503,01.223,553
2023-09-24T07:27:08,42.805,6.029,CST-1368DR,4157,4510,11503,01.223,553
2023-09-24T07:30:10,42.805,6.029,CST-1368DR,4157,4509,11499,01.224,553
2023-09-24T07:33:11,42.805,6.029,CST-1368DR,4157,4511,11504,01.222,553
2023-09-24T07:36:13,42.805,6.029,CST-1368DR,4157,4511,11504,01.222,553
2023-09-24T07:39:15,42.805,6.029,CST-1368DR,4157,4510,11501,01.223,552
2023-09-24T07:42:16,42.805,6.029,CST-1368DR,4157,4510,11503,01.223,552
2023-09-24T07:45:18,42.805,6.029,CST-1368DR,4157,4511,11504,01.222,553
2023-09-24T07:48:19,42.805,6.029,CST-1368DR,4157,4510,11503,01.223,553
2023-09-24T07:51:21,42.805,6.029,CST-1368DR,4157,4510,11501,01.223,552
2023-09-24T07:54:22,42.805,6.029,CST-1368DR,4157,4510,11501,01.223,553
2023-09-24T07:57:24,42.805,6.029,CST-1368DR,4157,4509,11500,01.224,553
2023-09-24T08:00:26,42.805,6.029,CST-1368DR,4157,4511,11504,01.222,552
2023-09-24T08:03:27,42.805,6.029,CST-1368DR,4157,4510,11501,01.223,552
2023-09-24T08:06:29,42.805,6.029,CST-1368DR,4157,4510,11502,01.223,553
2023-09-24T08:09:30,42.805,6.029,CST-1368DR,4157,4510,11503,01.223,553
2023-09-24T08:12:32,42.805,6.029,CST-1368DR,4157,4510,11503,01.223,553
2023-09-24T08:15:34,42.805,6.029,CST-1368DR,4157,4509,11499,01.224,552
2023-09-24T08:18:35,42.805,6.029,CST-1368DR,4157,4509,11499,01.224,553
2023-09-24T08:21:37,42.805,6.029,CST-1368DR,4157,4509,11499,01.224,553
2023-09-24T08:24:38,42.805,6.029,CST-1368DR,4157,4509,11501,01.223,553
2023-09-24T08:27:40,42.805,6.029,CST-1368DR,4157,4510,11503,01.223,552
2023-09-24T08:30:43,42.805,6.029,CST-1368DR,4157,4509,11499,01.224,553
2023-09-24T08:33:44,42.805,6.029,CST-1368DR,4157,4510,11503,01.223,553
2023-09-24T08:36:46,42.805,6.029,CST-1368DR,4157,4510,11503,01.223,553
2023-09-24T08:39:47,42.805,6.029,CST-1368DR,4157,4510,11501,01.223,552
2023-09-24T08:42:49,42.805,6.029,CST-1368DR,4157,4510,11502,01.223,553
2023-09-24T08:45:51,42.805,6.029,CST-1368DR,4157,4508,11497,01.225,552
2023-09-24T08:48:52,42.805,6.029,CST-1368DR,4157,4511,11504,01.222,552
2023-09-24T08:51:54,42.805,6.029,CST-1368DR,4157,4509,11499,01.224,552
2023-09-24T08:54:55,42.805,6.029,CST-1368DR,4157,4517,11520,01.217,552
2023-09-24T08:57:57,42.805,6.029,CST-1368DR,4157,4518,11522,01.216,553
2023-09-24T09:00:59,42.805,6.029,CST-1368DR,4157,4518,11522,01.216,553
2023-09-24T09:04:00,42.805,6.029,CST-1368DR,4157,4517,11520,01.217,553
2023-09-24T09:07:02,42.805,6.029,CST-1368DR,4157,4515,11515,01.219,552
2023-09-24T09:10:03,42.805,6.029,CST-1368DR,4157,4518,11524,01.215,553
2023-09-24T09:13:05,42.805,6.029,CST-1368DR,4157,4518,11524,01.215,552
2023-09-24T09:16:06,42.805,6.029,CST-1368DR,4157,4516,11519,01.217,552
2023-09-24T09:19:08,42.805,6.029,CST-1368DR,4157,4517,11520,01.217,552
2023-09-24T09:22:10,42.805,6.029,CST-1368DR,4157,4518,11524,01.215,553
2023-09-24T09:25:11,42.805,6.029,CST-1368DR,4157,4518,11522,01.216,552
2023-09-24T09:28:13,42.805,6.029,CST-1368DR,4157,4516,11518,01.218,553
2023-09-24T09:31:14,42.805,6.029,CST-1368DR,4157,4519,11526,01.215,553
2023-09-24T09:34:16,42.805,6.029,CST-1368DR,4157,4518,11523,01.216,552
2023-09-24T09:37:17,42.805,6.029,CST-1368DR,4157,4516,11519,01.217,553
2023-09-24T09:40:19,42.805,6.029,CST-1368DR,4157,4517,11520,01.217,552
2023-09-24T09:43:21,42.805,6.029,CST-1368DR,4157,4517,11521,01.216,553
2023-09-24T09:46:22,42.805,6.029,CST-1368DR,4157,4517,11519,01.217,553
2023-09-24T09:49:24,42.805,6.029,CST-1368DR,4157,4518,11523,01.216,553
2023-09-24T09:52:25,42.805,6.029,CST-1368DR,4157,4518,11522,01.216,553
2023-09-24T09:55:27,42.805,6.029,CST-1368DR,4157,4518,11522,01.216,553
2023-09-24T09:58:29,42.805,6.029,CST-1368DR,4157,4516,11518,01.218,553
2023-09-24T10:01:30,42.805,6.029,CST-1368DR,4157,4511,11506,01.222,553
2023-09-24T10:04:32,42.805,6.029,CST-1368DR,4157,4515,11516,01.218,553
2023-09-24T10:07:33,42.805,6.029,CST-1368DR,4157,4517,11521,01.216,553
2023-09-24T10:10:35,42.805,6.029,CST-1368DR,4157,4516,11517,01.218,552
2023-09-24T10:13:36,42.805,6.029,CST-1368DR,4157,4516,11518,01.218,553
2023-09-24T10:16:38,42.805,6.029,CST-1368DR,4157,4518,11522,01.216,552
2023-09-24T10:19:40,42.805,6.029,CST-1368DR,4157,4517,11519,01.217,553
2023-09-24T10:22:41,42.805,6.029,CST-1368DR,4157,4516,11517,01.218,553
2023-09-24T10:25:43,42.805,6.029,CST-1368DR,4157,4518,11522,01.216,553
2023-09-24T10:28:44,42.805,6.029,CST-1368DR,4157,4517,11520,01.217,553
2023-09-24T10:31:46,42.805,6.029,CST-1368DR,4157,4517,11519,01.217,553
2023-09-24T10:34:48,42.805,6.029,CST-1368DR,4157,4518,11522,01.216,553
2023-09-24T10:37:49,42.805,6.029,CST-1368DR,4157,4517,11520,01.217,553
2023-09-24T10:40:51,42.805,6.029,CST-1368DR,4157,4517,11520,01.217,552
2023-09-24T10:43:52,42.805,6.029,CST-1368DR,4157,4518,11522,01.216,553
2023-09-24T10:46:54,42.805,6.029,CST-1368DR,4157,4517,11520,01.217,553
2023-09-24T10:49:56,42.805,6.029,CST-1368DR,4157,4517,11520,01.217,553
2023-09-24T10:52:57,42.805,6.029,CST-1368DR,4157,4517,11521,01.216,553
2023-09-24T10:55:59,42.805,6.029,CST-1368DR,4157,4517,11519,01.217,553
2023-09-24T10:59:00,42.805,6.029,CST-1368DR,4157,4518,11522,01.216,552
2023-09-24T11:02:02,42.805,6.029,CST-1368DR,4157,4516,11518,01.218,553
2023-09-24T11:05:03,42.805,6.029,CST-1368DR,4157,4516,11518,01.218,553
2023-09-24T11:08:05,42.805,6.029,CST-1368DR,4157,4517,11519,01.217,552
2023-09-24T11:11:07,42.805,6.029,CST-1368DR,4157,4516,11519,01.217,552
2023-09-24T11:14:08,42.805,6.029,CST-1368DR,4157,4517,11521,01.216,553
2023-09-24T11:17:10,42.805,6.029,CST-1368DR,4157,4517,11521,01.216,553
2023-09-24T11:20:11,42.805,6.029,CST-1368DR,4157,4518,11522,01.216,552
2023-09-24T11:23:13,42.805,6.029,CST-1368DR,4157,4517,11520,01.217,553
2023-09-24T11:26:14,42.805,6.029,CST-1368DR,4157,4517,11520,01.217,553
2023-09-24T11:29:16,42.805,6.029,CST-1368DR,4157,4514,11513,01.219,553
2023-09-24T11:32:18,42.805,6.029,CST-1368DR,4157,4518,11523,01.216,553
2023-09-24T11:35:19,42.805,6.029,CST-1368DR,4157,4517,11521,01.216,553
2023-09-24T11:38:21,42.805,6.029,CST-1368DR,4157,4516,11519,01.217,552
2023-09-24T11:41:22,42.805,6.029,CST-1368DR,4157,4517,11519,01.217,552
2023-09-24T11:44:24,42.805,6.029,CST-1368DR,4157,4517,11521,01.216,553
2023-09-24T11:47:25,42.805,6.029,CST-1368DR,4157,4517,11521,01.216,552
2023-09-24T11:50:27,42.805,6.029,CST-1368DR,4157,4517,11520,01.217,553
2023-09-24T11:53:29,42.805,6.029,CST-1368DR,4157,4517,11519,01.217,553
2023-09-24T11:56:30,42.805,6.029,CST-1368DR,4157,4517,11521,01.216,553
2023-09-24T11:59:32,42.805,6.029,CST-1368DR,4157,4517,11521,01.216,553
2023-09-24T12:02:33,42.805,6.029,CST-1368DR,4157,4517,11520,01.217,553
2023-09-24T12:05:35,42.805,6.029,CST-1368DR,4157,4518,11523,01.216,553
2023-09-24T12:08:37,42.805,6.029,CST-1368DR,4157,4518,11523,01.216,553
2023-09-24T12:11:38,42.805,6.029,CST-1368DR,4157,4518,11524,01.215,552
2023-09-24T12:14:40,42.805,6.029,CST-1368DR,4157,4517,11521,01.216,553
2023-09-24T12:17:41,42.805,6.029,CST-1368DR,4157,4517,11520,01.217,553
2023-09-24T12:20:43,42.805,6.029,CST-1368DR,4157,4517,11520,01.217,553
2023-09-24T12:23:44,42.805,6.029,CST-1368DR,4157,4518,11523,01.216,552
2023-09-24T12:26:46,42.805,6.029,CST-1368DR,4157,4518,11522,01.216,553
2023-09-24T12:29:48,42.805,6.029,CST-1368DR,4157,4520,11527,01.214,552
2023-09-24T12:32:50,42.805,6.029,CST-1368DR,4157,4520,11527,01.214,552
2023-09-24T12:35:52,42.805,6.029,CST-1368DR,4157,4519,11526,01.215,552
2023-09-24T12:38:54,42.805,6.029,CST-1368DR,4157,4517,11521,01.216,553
2023-09-24T12:41:55,42.805,6.029,CST-1368DR,4157,4519,11526,01.215,553
2023-09-24T12:44:57,42.805,6.029,CST-1368DR,4157,4518,11524,01.215,553
2023-09-24T12:47:58,42.805,6.029,CST-1368DR,4157,4518,11523,01.216,553
2023-09-24T12:51:00,42.805,6.029,CST-1368DR,4157,4518,11523,01.216,552
2023-09-24T12:54:02,42.805,6.029,CST-1368DR,4157,4518,11523,01.216,553
2023-09-24T12:57:03,42.805,6.029,CST-1368DR,4157,4519,11525,01.215,553
2023-09-24T13:00:05,42.805,6.029,CST-1368DR,4157,4517,11520,01.217,553
2023-09-24T13:03:06,42.805,6.029,CST-1368DR,4157,4518,11523,01.216,552
2023-09-24T13:06:08,42.805,6.029,CST-1368DR,4157,4517,11521,01.216,553
2023-09-24T13:09:09,42.805,6.029,CST-1368DR,4157,4516,11518,01.218,552
2023-09-24T13:12:11,42.805,6.029,CST-1368DR,4157,4518,11522,01.216,552
2023-09-24T13:15:13,42.805,6.029,CST-1368DR,4157,4518,11522,01.216,552
2023-09-24T13:18:14,42.805,6.029,CST-1368DR,4157,4517,11520,01.217,553
2023-09-24T13:21:16,42.805,6.029,CST-1368DR,4157,4516,11517,01.218,553
2023-09-24T13:24:17,42.805,6.029,CST-1368DR,4157,4518,11524,01.215,552
2023-09-24T13:27:19,42.805,6.029,CST-1368DR,4157,4518,11522,01.216,553
2023-09-24T13:30:20,42.805,6.029,CST-1368DR,4157,4518,11522,01.216,552
2023-09-24T13:33:22,42.805,6.029,CST-1368DR,4157,4518,11523,01.216,552
2023-09-24T13:36:24,42.805,6.029,CST-1368DR,4157,4518,11522,01.216,553
2023-09-24T13:39:25,42.805,6.029,CST-1368DR,4157,4520,11527,01.214,553
2023-09-24T13:42:27,42.805,6.029,CST-1368DR,4157,4517,11521,01.216,553
2023-09-24T13:45:28,42.805,6.029,CST-1368DR,4157,4518,11523,01.216,552
2023-09-24T13:48:30,42.805,6.029,CST-1368DR,4157,4518,11522,01.216,552
2023-09-24T13:51:31,42.805,6.029,CST-1368DR,4157,4519,11525,01.215,552
2023-09-24T13:54:33,42.805,6.029,CST-1368DR,4157,4517,11521,01.216,552
2023-09-24T13:57:35,42.805,6.029,CST-1368DR,4157,4517,11520,01.217,553
2023-09-24T14:00:36,42.805,6.029,CST-1368DR,4157,4518,11522,01.216,552
2023-09-24T14:03:38,42.805,6.029,CST-1368DR,4157,4518,11522,01.216,553
2023-09-24T14:06:39,42.805,6.029,CST-1368DR,4157,4518,11522,01.216,552
2023-09-24T14:09:41,42.805,6.029,CST-1368DR,4157,4518,11523,01.216,553
2023-09-24T14:12:43,42.805,6.029,CST-1368DR,4157,4518,11522,01.216,553
2023-09-24T14:15:44,42.805,6.029,CST-1368DR,4157,4518,11522,01.216,553
2023-09-24T14:18:46,42.805,6.029,CST-1368DR,4157,4517,11519,01.217,552
2023-09-24T14:21:47,42.805,6.029,CST-1368DR,4157,4516,11519,01.217,552
2023-09-24T14:24:49,42.805,6.029,CST-1368DR,4157,4517,11521,01.216,553
2023-09-24T14:27:50,42.805,6.029,CST-1368DR,4157,4518,11522,01.216,553
2023-09-24T14:30:53,42.805,6.029,CST-1368DR,4157,4517,11520,01.217,553
2023-09-24T14:33:55,42.805,6.029,CST-1368DR,4157,4517,11521,01.216,553
2023-09-24T14:36:56,42.805,6.029,CST-1368DR,4157,4518,11522,01.216,553
2023-09-24T14:39:58,42.805,6.029,CST-1368DR,4157,4517,11521,01.216,552
2023-09-24T14:43:00,42.805,6.029,CST-1368DR,4157,4518,11523,01.216,553
2023-09-24T14:46:01,42.805,6.029,CST-1368DR,4157,4517,11520,01.217,553
2023-09-24T14:49:03,42.805,6.029,CST-1368DR,4157,4518,11524,01.215,553
2023-09-24T14:52:04,42.805,6.029,CST-1368DR,4157,4517,11520,01.217,552
2023-09-24T14:55:06,42.805,6.029,CST-1368DR,4157,4517,11521,01.216,552
2023-09-24T14:58:08,42.805,6.029,CST-1368DR,4157,4518,11524,01.215,552
2023-09-24T15:01:09,42.805,6.029,CST-1368DR,4157,4519,11525,01.215,553
2023-09-24T15:04:11,42.805,6.029,CST-1368DR,4157,4517,11521,01.216,552
2023-09-24T15:07:12,42.805,6.029,CST-1368DR,4157,4516,11519,01.217,552
2023-09-24T15:10:14,42.805,6.029,CST-1368DR,4157,4517,11520,01.217,553
2023-09-24T15:13:15,42.805,6.029,CST-1368DR,4157,4517,11521,01.216,553
2023-09-24T15:16:17,42.805,6.029,CST-1368DR,4157,4516,11517,01.218,553
2023-09-24T15:19:19,42.805,6.029,CST-1368DR,4157,4514,11513,01.219,553
2023-09-24T15:22:20,42.805,6.029,CST-1368DR,4157,4516,11519,01.217,552
2023-09-24T15:25:22,42.805,6.029,CST-1368DR,4157,4520,11528,01.214,553
2023-09-24T15:28:23,42.805,6.029,CST-1368DR,4157,4516,11519,01.217,553
2023-09-24T15:31:25,42.805,6.029,CST-1368DR,4157,4517,11520,01.217,552
2023-09-24T15:34:26,42.805,6.029,CST-1368DR,4157,4518,11522,01.216,553
2023-09-24T15:37:28,42.805,6.029,CST-1368DR,4157,4517,11521,01.216,553
2023-09-24T15:40:30,42.805,6.029,CST-1368DR,4157,4516,11519,01.217,552
2023-09-24T15:43:31,42.805,6.029,CST-1368DR,4157,4517,11520,01.217,553
2023-09-24T15:46:33,42.805,6.029,CST-1368DR,4157,4518,11522,01.216,553
2023-09-24T15:49:34,42.805,6.029,CST-1368DR,4157,4496,11466,01.236,553
2023-09-24T15:52:36,42.805,6.029,CST-1368DR,4157,4516,11517,01.218,552
2023-09-24T15:55:38,42.805,6.029,CST-1368DR,4157,4517,11520,01.217,553
2023-09-24T15:58:39,42.805,6.029,CST-1368DR,4157,4518,11522,01.216,553
2023-09-24T16:01:41,42.805,6.029,CST-1368DR,4157,4518,11522,01.216,553
2023-09-24T16:04:42,42.805,6.029,CST-1368DR,4157,4518,11523,01.216,553
2023-09-24T16:07:44,42.805,6.029,CST-1368DR,4157,4518,11522,01.216,553
2023-09-24T16:10:45,42.805,6.029,CST-1368DR,4157,4516,11519,01.217,553
2023-09-24T16:13:47,42.805,6.029,CST-1368DR,4157,4517,11521,01.216,553
2023-09-24T16:16:49,42.805,6.029,CST-1368DR,4157,4516,11517,01.218,552
2023-09-24T16:19:50,42.805,6.029,CST-1368DR,4157,4517,11521,01.216,553
2023-09-24T16:22:52,42.805,6.029,CST-1368DR,4157,4517,11521,01.216,553
2023-09-24T16:25:53,42.805,6.029,CST-1368DR,4157,4516,11517,01.218,553
2023-09-24T16:28:55,42.805,6.029,CST-1368DR,4157,4516,11518,01.218,552
2023-09-24T16:31:57,42.805,6.029,CST-1368DR,4157,4516,11517,01.218,553
2023-09-24T16:34:58,42.805,6.029,CST-1368DR,4157,4517,11519,01.217,553
2023-09-24T16:38:00,42.805,6.029,CST-1368DR,4157,4516,11518,01.218,552